Other Surface Observations
Issued by NWS Charleston, SC

Home | Current Version | Previous Version | Text Only | Print | Product List | Glossary On
Versions: 1 2 3 4 5 6 7 8 9 10 11 12 13 14 15 16 17 18 19 20 21 22 23 24 25 26 27 28 29 30 31 32 33 34 35 36 37 38 39 40 41 42 43 44 45 46 47 48 49 50
000
SXUS52 KCHS 282227
OSOCHS

MARINE OBSERVATIONS
NATIONAL WEATHER SERVICE CHARLESTON SC
600 PM EDT WED JUN 28 2017

...DOWNTOWN CHARLESTON AND HARBOR...

CITY           SKY/WX    TMP DP  RH WIND       PRES   REMARKS
WATERFRONT PRK   N/A     82  68  62 E14       30.12F

...LAKE MOULTRIE...

CITY           SKY/WX    TMP DP  RH WIND       PRES   REMARKS
PINOPOLIS        N/A     84  63  48 E5        30.06F

...LAKE AND SUPPLEMENTAL COASTAL OBSERVATIONS...

STATION/POSITION TIME  TEMP    WIND        PRES    WAVE   SWELL
                       AIR SEA DIR/SP/G            HT/PER HT/PER/DIR
                 (UTC) (F)     (DEG/KT/KT) (MB)    (FT/S) (FT/S/D)
FORT PULASKI     2200   81 83   80/ 16/ 20 1020.4
SAPELO ISLAND    2200   83      70/  8     1019.0
WINYAH BAY       2130   80     100/  9     1021.0S
LAKE MURRAY      2220   86     160/  4/  7 1019.0
ACE BASIN NERRS  2145   84      90/  5     1020.0S


...C-MAN AND BUOY OBSERVATIONS...

STATION/POSITION TIME  TEMP    WIND        PRES    WAVE   SWELL
                       AIR SEA DIR/SP/G            HT/PER HT/PER/DIR
                 (UTC) (F)     (DEG/KT/KT) (MB)    (FT/S) (FT/S/D)
BUOY 41004       2210   80 80   60/ 16/ 19 1019.9
BUOY 41008       2150   81 82   70/ 16/ 17 1019.0R   3/ 5
FOLLY BEACH CMAN 2200   80      70/ 13/ 15 1021.1F
CAPERS NS BUOY   2108   85 83   80/ 14/ 19 1020.4F
FRIPP NS BUOY    2108   81 83   80/ 16/ 21 1019.6S
5E ST. MARYS GA  2200      81                N/A     3/ 5


STATION/POSITION TIME  TEMP    WIND        PRES    WAVE   SWELL
                       AIR SEA DIR/SP/G            HT/PER HT/PER/DIR
                 (UTC) (F)     (DEG/KT/KT) (MB)    (FT/S) (FT/S/D)
FRYING PAN BUOY  2210   79 80   70/ 12/ 14 1021.0
BUOY 41025       2150   78 83   40/  8/ 12 1021.8R   2/ 7   2/ 60/ 7
CAPE LOOKOUT NC  2200   78      80/ 12/ 13 1021.2F
BUOY 41002       2150   80 81   60/ 16/ 17 1019.3F   3/ 8   2/120/ 8
BUOY 41010       2210   82 84   70/ 10/ 12 1017.9
ST AUGUSTINE FL  2200   81 82   70/  9/ 10 1018.5F

$$




USA.gov is the U.S. government's official web portal to all federal, state and local government web resources and services.